{"data":{"norad_id":55574,"intl_designator":"2023-020F","name":"STARLINK-5747","alt_names":[],"object_type":"PAYLOAD","status":"ACTIVE","operator":null,"country":"US","launch_date":"2023-02-12","launch_site_code":"AFETR","launch_vehicle":null,"mission":null,"orbit_class":"UNKNOWN","rcs_meters":null,"size_class":null,"mass_kg":null,"dimensions":null,"purposes":["comms"],"wikipedia_slug":null,"has_3d_model":false,"image_url":null,"decayed_at":null,"tle_current":{"epoch":"2026-09-20T12:12:41.309280Z","epoch_age_seconds":99445,"freshness":"FRESH","line1":"1 55574U 23020F   26263.50881145  .00000247  00000+0  18497-4 0  9999","line2":"2 55574  43.0044 348.7352 0001642 268.9159  91.1504 15.27579917198661","mean_motion":15.27579917,"eccentricity":0.0001642,"inclination_deg":43.0044,"raan_deg":348.7352,"arg_perigee_deg":268.9159,"mean_anomaly_deg":91.1504,"bstar":1.8497e-5,"rev_number":19866,"period_min":94.26675383557,"perigee_km":481.92273777374,"apogee_km":484.1759513693,"semimajor_km":6861.1863445715,"source":"CELESTRAK","updated_at":"2026-09-21T09:00:33.263528Z"}}}